Home   Weather   Wörgl   Past weeks

Flag for Austria Past Weather in Wörgl, Tyrol, Austria — Yesterday and Last 2 Weeks

Now
45 °F

Cool.


Feels Like: 43 °F
Forecast: 37 / 49 °F
Wind: 5 mph from Northeast

Location: Kufstein

Current Time: Apr 26, 2017 at 2:18:14 pm

Latest Report: Apr 26, 2017 at 1:00 pm


Visibility: N/A

Pressure: 29.78 "Hg (27.98 "Hg at 514m altitude)

Humidity: 84%

Dew Point: 40 °F

Location of WörglLocation

Past Weather in Wörgl — Graph

°F

Wörgl Temperature Yesterday

Maximum temperature yesterday: 63 °F (at 2:00 pm)
Minimum temperature yesterday: 42 °F (at 4:00 am)
Average temperature yesterday: 51 °F

High & Low Weather Summary for the Past Weeks

 TemperatureHumidityPressure
High65 °F (Apr 12, 6:00 pm)96% (Apr 19, 12:00 am)30.64 "Hg (Apr 19, 12:00 am)
Low27 °F (Apr 21, 7:00 am)33% (Apr 22, 2:00 pm)29.68 "Hg (Apr 25, 2:00 pm)
Average44 °F75%30.15 "Hg
* Reported Apr 11 12:00 pm — Apr 26 12:00 pm, Wörgl, Weather by CustomWeather, © 2017

Note: Actual official high and low records may vary slightly from our data, if they occured in-between our weather recording intervals... More about our weather records

Advertising

Wörgl Weather History for the Previous 24 Hours

Scroll right to see more
 ConditionsComfort  
Time TempWeatherWind HumidityBarometerVisibility
12:00 pm
Wed, Apr 26
44 °FQuite cool.5 mph85%29.78 "HgN/A
11:00 am43 °FQuite cool.5 mph86%29.77 "HgN/A
10:00 am43 °FQuite cool.5 mph88%29.77 "HgN/A
9:00 am44 °FQuite cool.3 mph89%29.76 "HgN/A
8:00 am44 °FQuite cool.3 mph90%29.75 "HgN/A
7:00 am43 °FOvercast.5 mph88%29.75 "Hg3 mi
6:00 am44 °FQuite cool.3 mph90%29.74 "HgN/A
5:00 am44 °FQuite cool.3 mph92%29.74 "HgN/A
4:00 am45 °FQuite cool.5 mph92%29.73 "HgN/A
3:00 am47 °FCool.3 mph91%29.72 "HgN/A
2:00 am47 °FCool.3 mph92%29.71 "HgN/A
1:00 am47 °FCool.2 mph92%29.74 "HgN/A
12:00 am47 °FCool.3 mph92%29.75 "HgN/A
11:00 pm
Tue, Apr 25
48 °FCool.3 mph91%29.77 "HgN/A
10:00 pm49 °FFog.5 mph89%29.77 "HgN/A
9:00 pm53 °FFog.5 mph73%29.74 "HgN/A
8:00 pm54 °FCool.5 mph70%29.71 "HgN/A
7:00 pm56 °FCool.6 mph64%29.70 "HgN/A
6:00 pm57 °FCool.5 mph63%29.69 "HgN/A
5:00 pm58 °FCool.6 mph65%29.70 "HgN/A
4:00 pm58 °FCool.6 mph69%29.70 "HgN/A
3:00 pm61 °FRefreshingly cool.5 mph54%29.70 "HgN/A
2:00 pm63 °FMild.5 mph48%29.68 "HgN/A
Weather by CustomWeather, © 2017

See weather overviewHow to use our weather pages